Zurück zum Katalog

BEIDOU 3M24

AktivNavigationMEO
NORAD 44543·PAYLOAD·🇨🇳 China

Gestartet Sep 22, 2019 von Xichang Satellite Launch Center

Loading…

Nächste Überflüge (nächste 24 Stunden)

TLE

AktuellSource: Space-Track

Epoche: Sep 13, 2026, 03:27 UTC

1 44543U 19061B   26256.14387780  .00000006  00000-0  00000-0 0  9992
2 44543  54.3922 179.7314 0006063   1.1981 163.1718  1.86227599 47438

Verfolge BEIDOU 3M24 in Echtzeit mit AllMySat

Download on the App Store